Date,TemperatureHighF,TemperatureAvgF,TemperatureLowF,DewpointHighF,DewpointAvgF,DewpointLowF,HumidityHigh,HumidityAvg,HumidityLow,PressureMaxIn,PressureMinIn,WindSpeedMaxMPH,WindSpeedAvgMPH,GustSpeedMaxMPH,PrecipitationSumIn
2013-1-1,40,37,27,31,25,11,75,63,50,29.86,29.68,16,4,16,0.00
2013-1-2,33,28,23,19,15,11,67,58,50,30.02,29.84,14,4,14,0.00
2013-1-3,33,24,23,21,-1,-100,73,54,53,30.05,29.91,10,-153,10,0.00
2013-1-4,38,35,32,25,23,21,71,62,55,29.93,29.79,14,4,15,0.00
2013-1-5,42,35,30,26,24,20,78,62,51,30.12,29.85,18,3,18,0.00
2013-1-6,44,39,33,34,30,25,92,71,58,30.07,29.82,9,2,9,0.00
2013-1-7,43,38,34,32,28,23,81,65,47,30.25,29.89,12,2,12,0.00
2013-1-8,48,41,34,34,32,26,83,70,57,30.28,30.18,12,2,12,0.00
2013-1-9,49,42,32,41,35,28,90,76,60,30.24,29.97,14,2,14,0.00
2013-1-10,46,42,35,35,28,25,72,57,44,30.39,30.06,15,3,15,0.00
2013-1-11,45,36,32,45,21,-100,98,75,69,30.39,29.95,6,-104,6,0.41
2013-1-12,45,43,42,45,43,41,99,98,97,30.03,29.91,11,0,11,0.10
2013-1-13,48,45,42,48,45,41,100,98,94,30.01,29.86,11,1,11,0.00
2013-1-14,56,50,38,54,46,35,100,87,64,30.14,29.77,14,2,14,0.02
2013-1-15,38,37,35,35,31,28,94,81,69,30.19,30.07,9,0,9,0.08
2013-1-16,37,34,33,36,34,30,98,96,82,30.07,29.64,12,1,12,0.62
2013-1-17,43,39,34,36,31,25,96,73,58,29.94,29.75,7,2,11,0.01
2013-1-18,34,26,25,26,5,-100,71,52,39,30.33,29.85,13,-78,13,0.00
2013-1-19,51,40,29,38,27,15,77,59,41,30.26,29.78,22,3,22,0.00
2013-1-20,54,43,30,33,25,13,73,52,23,29.88,29.54,18,4,18,0.00
2013-1-21,32,29,25,21,15,10,69,55,45,29.95,29.67,12,2,12,0.00
2013-1-22,28,19,14,20,-6,-100,70,42,33,30.04,29.67,18,-88,18,0.00
2013-1-23,20,15,12,3,-2,-6,61,46,36,30.09,30.00,17,3,17,0.00
2013-1-24,22,17,12,6,2,-1,68,52,36,30.23,29.98,25,4,25,0.00
2013-1-25,25,17,14,19,0,-100,91,58,1,30.25,29.91,12,-64,13,0.00
2013-1-26,27,19,16,15,3,-100,87,63,45,30.20,29.89,19,-67,19,0.02
2013-1-27,32,25,17,15,12,9,75,58,40,30.35,30.20,11,2,11,0.02
2013-1-28,35,31,25,34,26,14,97,82,59,30.33,29.85,16,1,16,0.23
2013-1-29,47,40,35,42,38,34,98,93,79,30.00,29.84,9,0,9,0.10
2013-1-30,55,49,38,54,48,37,99,98,95,29.94,29.25,27,4,27,0.00
2013-1-31,58,45,30,57,32,11,98,64,37,29.62,28.90,36,8,36,0.53
2013-2-1,31,22,24,16,-12,-100,63,39,37,30.06,29.62,18,-206,18,0.00
2013-2-2,30,25,20,23,12,7,92,57,39,30.14,29.91,16,2,16,0.00
2013-2-3,30,24,23,23,10,-100,94,73,66,29.91,29.63,7,-94,7,0.05
2013-2-4,30,24,23,23,1,-100,80,51,44,29.82,29.65,16,-111,16,0.00
2013-2-5,30,29,27,29,26,17,95,88,63,29.83,29.75,8,0,8,0.01
2013-2-6,39,33,28,29,23,10,97,69,44,30.20,29.76,16,3,16,0.01
2013-2-7,32,28,24,23,13,7,75,55,41,30.36,30.19,6,0,6,0.00
2013-2-8,34,32,28,33,30,23,97,91,75,30.19,29.45,20,3,20,0.24
2013-2-9,30,27,21,27,20,11,97,78,57,30.17,29.57,25,5,25,0.00
2013-2-10,33,24,15,27,15,8,88,67,42,30.33,30.17,8,1,9,0.16
2013-2-11,45,34,30,45,18,-100,99,82,85,30.18,29.51,13,-152,13,0.73
2013-2-12,44,40,34,40,30,26,99,69,53,29.82,29.56,12,3,12,0.01
2013-2-13,43,36,28,32,27,24,91,71,50,29.80,29.54,8,0,8,0.00
2013-2-14,45,37,30,36,31,24,97,80,51,29.85,29.55,12,1,12,0.00
2013-2-15,51,42,35,39,36,32,93,80,58,29.87,29.77,11,2,11,0.00
2013-2-16,41,35,30,34,28,19,96,77,58,29.81,29.56,12,2,12,0.00
2013-2-17,31,26,18,20,9,3,65,47,34,29.82,29.49,26,7,26,0.00
2013-2-18,34,26,18,17,8,4,60,47,34,30.07,29.82,21,5,21,0.00
2013-2-19,46,40,32,43,33,16,97,78,51,30.06,29.52,19,3,19,0.18
2013-2-20,38,31,26,28,16,12,67,54,42,29.82,29.55,20,6,20,0.00
2013-2-21,34,28,24,18,15,12,71,57,46,30.13,29.81,23,6,23,0.00
2013-2-22,38,32,25,31,24,17,83,72,60,30.25,30.11,8,0,8,0.00
2013-2-23,43,38,35,43,37,31,98,94,83,30.13,29.65,12,1,12,0.24
2013-2-24,46,38,33,39,34,25,98,84,61,29.80,29.58,17,3,17,0.01
2013-2-25,46,37,30,31,27,24,84,68,50,30.08,29.80,11,1,11,0.00
2013-2-26,44,37,29,36,32,28,97,83,65,30.14,29.76,11,1,11,0.12
2013-2-27,50,43,36,49,41,35,98,94,83,29.77,29.33,17,2,17,1.35
2013-2-28,50,44,40,41,37,32,91,77,61,29.47,29.39,8,1,8,0.01
2013-3-1,45,40,33,34,31,28,90,72,55,29.62,29.44,12,2,12,0.00
2013-3-2,40,36,31,30,27,25,94,70,59,29.62,29.53,11,3,11,0.00
2013-3-3,40,33,28,29,23,19,92,68,47,29.59,29.49,14,4,14,0.00
2013-3-4,41,33,28,24,21,18,72,61,48,29.74,29.59,22,6,22,0.00
2013-3-5,46,38,31,31,26,22,75,63,49,29.86,29.74,16,2,16,0.00
2013-3-6,42,39,35,37,33,31,90,81,72,29.83,29.69,26,4,26,0.00
2013-3-7,38,34,32,35,32,30,97,92,85,29.91,29.75,17,3,17,0.12
2013-3-8,38,34,31,34,32,29,98,92,71,30.01,29.84,10,1,10,0.12
2013-3-9,50,41,33,34,28,22,93,63,34,30.17,30.01,12,2,12,0.00
2013-3-10,48,38,29,38,33,28,98,85,63,30.24,30.15,8,1,8,0.00
2013-3-11,53,46,38,48,42,35,94,88,72,30.18,29.95,15,1,15,0.00
2013-3-12,54,51,43,53,49,39,98,92,82,29.95,29.53,25,5,25,1.05
2013-3-13,51,43,36,39,32,24,96,68,39,29.73,29.63,12,2,12,0.00
2013-3-14,40,35,29,30,16,8,72,46,29,29.80,29.68,26,7,26,0.00
2013-3-15,46,37,29,32,20,10,69,50,37,29.82,29.56,22,4,22,0.00
2013-3-16,41,35,32,32,27,22,95,75,54,29.75,29.62,13,1,13,0.04
2013-3-17,38,33,29,31,22,14,95,65,43,30.15,29.75,14,2,14,0.02
2013-3-18,37,32,26,32,21,11,96,66,46,30.25,29.88,11,1,11,0.00
2013-3-19,40,36,33,37,34,32,98,94,83,29.87,29.53,16,2,16,0.97
2013-3-20,45,38,32,32,22,18,82,54,36,29.73,29.63,16,4,16,0.00
2013-3-21,37,34,31,28,24,14,84,68,43,29.69,29.48,14,2,15,0.00
2013-3-22,42,35,29,24,19,15,66,52,40,29.72,29.57,16,4,16,0.00
2013-3-23,45,38,33,25,22,19,67,52,39,29.77,29.65,20,5,20,0.00
2013-3-24,47,38,31,29,24,20,70,57,41,29.79,29.56,11,1,11,0.00
2013-3-25,40,36,32,36,30,-100,96,75,1,29.57,29.31,19,-16,19,0.10
2013-3-26,52,41,32,36,32,27,96,69,1,29.70,29.42,11,1,11,0.01
2013-3-27,53,43,34,32,28,22,75,57,32,29.80,29.70,17,3,17,0.00
2013-3-28,51,43,36,39,33,30,84,68,52,29.94,29.80,10,2,10,0.08
2013-3-29,58,47,38,35,31,28,73,55,34,29.98,29.89,14,3,14,0.01
2013-3-30,58,47,37,37,31,21,81,57,27,30.01,29.91,10,2,10,0.00
2013-3-31,54,46,36,45,37,31,97,73,45,29.97,29.50,15,2,15,0.15
2013-4-1,63,38,37,48,7,-100,97,53,37,29.75,29.46,20,-218,20,0.01
2013-4-2,44,38,33,19,15,12,54,40,28,29.93,29.75,17,5,17,0.00
2013-4-3,47,39,33,17,14,12,49,37,27,30.13,29.92,18,6,18,0.00
2013-4-4,52,40,31,34,24,16,76,53,33,30.23,29.94,16,3,16,0.00
2013-4-5,62,49,40,37,28,17,86,49,22,29.94,29.55,19,3,19,0.00
2013-4-6,51,42,35,31,20,7,72,44,19,30.16,29.83,17,3,17,0.00
2013-4-7,54,46,38,45,37,29,89,73,56,30.15,29.85,22,4,22,0.00
2013-4-8,74,56,44,48,45,42,95,70,34,29.93,29.83,12,2,12,0.00
2013-4-9,82,65,46,55,46,38,97,58,23,29.86,29.74,16,2,16,0.24
2013-4-10,76,60,52,57,50,45,98,72,50,29.86,29.64,24,2,24,0.36
2013-4-11,60,54,47,57,50,39,99,87,69,29.90,29.62,14,1,14,0.02
2013-4-12,47,43,40,42,40,37,97,90,69,29.89,29.56,15,2,15,0.59
2013-4-13,55,46,39,42,39,36,97,79,49,29.82,29.58,12,2,12,0.04
2013-4-14,58,51,45,45,36,28,93,60,35,30.07,29.81,19,3,19,0.00
2013-4-15,58,48,40,39,33,29,79,58,39,30.23,30.07,10,1,10,0.00
2013-4-16,63,54,44,54,48,37,92,81,68,30.22,29.97,21,3,21,0.00
2013-4-17,69,60,52,55,45,35,94,62,32,30.14,29.95,11,2,11,0.01
2013-4-18,60,54,47,55,45,37,96,73,46,30.20,29.96,14,2,14,0.00
2013-4-19,69,60,54,62,58,53,99,94,77,29.95,29.51,23,5,23,0.00
2013-4-20,60,54,47,59,38,27,97,60,32,30.13,29.52,14,4,14,0.18
2013-4-21,54,45,37,33,26,20,68,48,29,30.47,30.13,15,3,15,0.00
2013-4-22,55,46,35,39,34,28,89,65,40,30.51,30.34,14,2,14,0.00
2013-4-23,50,45,41,43,38,34,92,79,71,30.34,29.95,12,2,12,0.00
2013-4-24,66,51,41,51,45,39,96,81,52,29.96,29.70,18,3,18,0.00
2013-4-25,65,55,46,52,36,22,95,52,22,30.11,29.71,15,3,15,0.00
2013-4-26,67,55,42,42,37,30,85,54,28,30.25,30.11,9,1,9,0.00
2013-4-27,70,55,44,39,33,23,65,45,19,30.27,30.14,13,1,13,0.00
2013-4-28,68,56,46,47,40,29,89,59,27,30.17,30.06,14,2,14,0.00
2013-4-29,57,54,51,51,47,44,92,77,64,30.09,30.04,11,1,11,0.31
2013-4-30,67,57,48,49,38,24,86,55,23,30.18,30.06,11,1,11,0.00
2013-5-1,69,54,41,49,42,33,91,65,39,30.33,30.18,11,1,11,0.00
2013-5-2,72,56,43,50,44,42,96,69,38,30.32,30.18,9,1,9,0.00
2013-5-3,68,55,47,46,42,38,91,65,36,30.31,30.21,14,1,14,0.00
2013-5-4,70,53,44,49,44,40,97,74,37,30.22,30.11,12,1,12,0.00
2013-5-5,66,51,41,47,42,39,92,74,43,30.15,30.07,12,1,12,0.00
2013-5-6,68,54,43,54,48,41,96,80,56,30.12,30.00,9,1,9,0.00
2013-5-7,73,60,47,61,54,46,98,83,63,30.02,29.94,7,0,7,0.00
2013-5-8,65,59,52,63,58,52,99,95,89,29.96,29.83,8,0,8,0.74
2013-5-9,64,58,54,60,57,53,99,96,83,29.87,29.74,6,0,6,0.20
2013-5-10,80,66,56,62,57,53,96,75,42,29.85,29.74,14,1,14,0.00
2013-5-11,67,62,60,63,60,57,99,95,81,29.75,29.55,16,2,16,0.38
2013-5-12,71,61,52,62,46,28,99,62,28,29.78,29.50,15,2,15,0.04
2013-5-13,60,51,45,36,32,25,70,48,32,29.94,29.78,14,2,14,0.00
2013-5-14,61,51,41,43,35,26,81,57,29,29.97,29.87,11,1,11,0.00
2013-5-15,65,58,50,59,49,39,90,73,51,29.92,29.54,18,2,18,0.01
2013-5-16,79,68,60,59,53,43,88,62,35,29.67,29.55,13,1,13,0.00
2013-5-17,71,63,56,50,45,42,65,52,36,30.05,29.67,6,0,6,0.00
2013-5-18,68,58,50,56,50,44,91,75,52,30.16,30.05,9,0,9,0.01
2013-5-19,58,57,56,58,55,48,99,94,70,30.18,30.02,6,0,8,0.32
2013-5-20,77,66,58,69,63,57,100,91,73,30.02,29.81,13,1,13,0.01
2013-5-21,86,73,64,72,67,62,99,83,62,29.83,29.70,13,2,13,0.00
2013-5-22,75,67,58,70,64,56,98,91,80,29.79,29.69,11,1,11,0.00
2013-5-23,77,67,63,70,65,62,98,92,75,29.76,29.62,19,3,19,0.04
2013-5-24,67,57,47,66,56,44,99,97,91,29.77,29.52,13,1,13,0.29
2013-5-25,52,48,44,48,44,40,99,87,66,29.83,29.72,17,2,17,0.36
2013-5-26,68,56,47,46,41,37,78,60,36,30.05,29.78,13,2,13,0.00
2013-5-27,75,61,48,49,42,36,74,52,27,30.09,29.97,11,1,11,0.00
2013-5-28,68,58,52,58,53,46,99,83,46,30.07,29.98,9,0,9,0.42
2013-5-29,81,68,56,70,63,56,100,86,66,29.99,29.85,11,1,11,0.01
2013-5-30,92,80,70,70,66,63,88,66,42,29.97,29.91,12,2,14,0.00
2013-5-31,92,80,71,72,67,63,86,66,43,29.98,29.84,13,2,13,0.00
2013-6-1,88,77,69,72,67,64,88,73,56,29.88,29.76,13,3,13,0.00
2013-6-2,84,74,66,71,66,63,92,79,62,29.78,29.64,12,2,12,0.00
2013-6-3,76,70,66,70,67,54,99,92,64,29.73,29.65,12,1,12,0.39
2013-6-4,75,66,56,56,49,43,77,57,36,29.96,29.73,5,0,5,0.00
2013-6-5,76,64,54,58,49,42,91,61,37,30.06,29.95,9,0,9,0.00
2013-6-6,72,64,58,60,57,48,96,81,47,30.00,29.87,9,0,9,0.03
2013-6-7,63,61,58,62,60,58,99,98,94,29.88,29.48,12,1,12,2.41
2013-6-8,78,66,56,68,62,56,100,89,68,29.90,29.42,10,0,10,0.50
2013-6-9,82,70,60,64,61,58,98,76,48,30.02,29.90,11,0,11,0.00
2013-6-10,72,65,63,68,64,62,99,95,83,30.01,29.70,9,0,9,0.78
2013-6-11,81,71,63,71,67,61,100,88,59,29.70,29.46,11,1,11,0.27
2013-6-12,76,69,62,62,57,54,82,67,50,29.70,29.55,9,1,9,0.00
2013-6-13,65,62,56,62,59,55,98,88,72,29.69,29.32,14,1,14,0.67
2013-6-14,71,59,53,61,56,52,99,89,61,29.73,29.35,11,1,11,0.28
2013-6-15,80,68,58,62,58,52,95,72,39,29.85,29.73,9,0,9,0.00
2013-6-16,80,72,61,68,60,51,82,67,38,29.84,29.62,13,1,13,0.00
2013-6-17,86,76,68,70,66,64,91,74,54,29.76,29.69,14,1,14,0.00
2013-6-18,84,70,63,72,66,62,98,89,57,29.75,29.67,8,0,8,0.23
2013-6-19,77,66,57,63,56,47,98,72,42,30.02,29.73,9,0,9,0.00
2013-6-20,80,68,58,61,56,53,89,66,48,30.12,30.02,14,2,14,0.00
2013-6-21,83,71,62,62,56,52,79,61,44,30.16,30.09,13,2,13,0.00
2013-6-22,84,71,63,65,59,55,88,67,46,30.11,29.99,13,2,13,0.00
2013-6-23,86,75,67,73,67,59,95,76,60,30.05,29.92,16,3,16,0.17
2013-6-24,92,79,72,76,71,65,97,77,56,29.93,29.79,12,1,12,0.00
2013-6-25,92,81,72,75,69,65,84,68,48,29.85,29.65,8,1,13,0.00
2013-6-26,86,79,74,72,69,67,89,73,57,29.69,29.62,8,0,8,0.00
2013-6-27,82,75,71,77,72,69,99,90,74,29.68,29.44,15,1,15,0.39
2013-6-28,84,76,71,74,71,68,96,85,65,29.44,29.33,13,2,13,0.00
2013-6-29,83,75,70,72,70,67,92,83,62,29.56,29.35,15,2,15,0.01
2013-6-30,84,74,70,77,72,68,97,92,73,29.77,29.56,12,1,12,0.00
2013-7-1,78,73,72,74,72,71,98,96,87,29.92,29.76,15,1,15,0.35
2013-7-2,82,75,72,76,72,71,98,93,80,30.04,29.91,14,2,14,0.08
2013-7-3,86,76,71,76,73,70,97,89,72,30.10,30.03,13,1,13,0.05
2013-7-4,88,80,74,80,74,72,98,85,68,30.11,30.01,15,2,15,0.01
2013-7-5,92,82,75,77,74,72,94,78,59,30.07,29.94,12,2,12,0.00
2013-7-6,94,85,77,77,74,71,89,71,51,29.99,29.87,8,1,8,0.00
2013-7-7,92,85,77,78,74,68,88,71,54,29.91,29.78,12,1,12,0.21
2013-7-8,90,80,73,72,70,66,86,71,50,29.89,29.82,14,1,14,0.00
2013-7-9,90,79,73,77,71,67,95,77,56,29.92,29.84,14,1,14,0.09
2013-7-10,86,79,73,78,73,70,94,84,72,29.88,29.66,18,2,18,0.06
2013-7-11,81,77,73,74,72,67,94,84,71,29.77,29.65,8,1,8,0.02
2013-7-12,75,72,68,70,67,64,98,86,77,29.95,29.77,11,1,11,0.27
2013-7-13,81,73,68,78,72,67,99,96,87,30.14,29.95,6,0,6,0.02
2013-7-14,92,80,72,78,74,71,99,83,56,30.18,30.08,11,1,11,0.00
2013-7-15,95,84,78,78,75,72,85,74,54,30.09,29.98,5,0,5,0.00
2013-7-16,94,83,74,74,71,67,93,69,45,30.05,29.98,4,0,4,0.00
2013-7-17,96,84,74,75,71,65,89,67,38,30.04,29.91,8,0,8,0.00
2013-7-18,99,87,77,78,74,70,85,67,42,29.92,29.80,6,0,6,0.00
2013-7-19,96,88,80,80,77,75,86,71,54,29.82,29.64,21,2,21,0.19
2013-7-20,94,86,80,77,73,66,79,66,50,29.69,29.57,15,1,15,0.00
2013-7-21,87,79,74,73,68,61,92,70,45,29.82,29.68,7,0,7,0.00
2013-7-22,82,76,72,78,74,71,98,94,82,29.81,29.66,6,0,6,0.67
2013-7-23,86,77,71,77,74,69,99,91,67,29.66,29.41,11,1,11,0.56
2013-7-24,82,75,68,72,69,58,98,82,64,29.78,29.47,7,0,7,0.00
2013-7-25,68,63,61,61,58,54,98,83,68,29.90,29.78,9,1,9,0.41
2013-7-26,79,69,61,68,64,61,98,85,60,29.90,29.83,7,0,7,0.01
2013-7-27,83,74,68,68,66,60,93,78,52,29.91,29.82,9,1,9,0.00
2013-7-28,78,72,66,71,68,65,98,88,67,29.85,29.79,10,0,10,0.01
2013-7-29,86,76,69,72,66,53,98,74,42,29.95,29.81,13,0,13,0.02
2013-7-30,84,72,63,63,60,57,89,67,46,30.01,29.94,7,0,7,0.00
2013-7-31,84,72,63,66,62,60,90,71,45,30.01,29.90,6,0,8,0.00
2013-8-1,75,70,66,69,66,62,98,89,71,29.90,29.69,13,1,13,0.40
2013-8-2,84,74,67,70,66,60,99,77,47,29.76,29.64,11,0,11,0.02
2013-8-3,78,73,69,70,64,58,92,75,58,29.77,29.69,11,0,11,0.01
2013-8-4,82,71,64,66,61,53,93,71,43,29.81,29.69,10,0,10,0.00
2013-8-5,79,68,59,59,54,49,88,62,37,29.91,29.80,5,0,6,0.00
2013-8-6,80,70,60,65,60,55,95,72,45,29.99,29.89,12,1,12,0.00
2013-8-7,79,72,66,68,64,61,88,78,61,30.00,29.93,13,1,13,0.00
2013-8-8,82,74,68,75,71,67,97,91,78,29.93,29.86,13,2,13,0.07
2013-8-9,85,77,74,77,74,72,97,91,74,29.88,29.66,17,2,17,0.02
2013-8-10,83,75,68,73,65,57,93,73,51,29.90,29.70,4,0,4,0.00
2013-8-11,83,71,61,65,59,54,88,66,40,29.98,29.88,8,0,8,0.00
2013-8-12,80,72,69,72,69,65,99,90,74,29.90,29.78,6,0,6,0.22
2013-8-13,73,71,68,72,69,67,99,95,84,29.79,29.56,8,0,8,0.58
2013-8-14,76,68,60,67,56,50,98,69,49,29.90,29.59,7,1,7,0.00
2013-8-15,80,67,56,60,55,48,92,67,35,30.00,29.90,9,0,9,0.00
2013-8-16,82,69,59,63,58,53,92,69,41,30.06,29.98,7,0,7,0.00
2013-8-17,84,70,60,66,60,56,92,72,43,30.13,30.06,6,0,6,0.00
2013-8-18,76,69,64,66,62,57,93,81,59,30.11,29.98,5,0,5,0.00
2013-8-19,78,71,64,66,62,56,89,75,60,29.98,29.88,9,0,9,0.00
2013-8-20,88,75,65,70,66,62,97,76,44,29.98,29.90,6,0,6,0.00
2013-8-21,89,77,67,72,67,60,97,75,41,30.03,29.91,11,1,11,0.17
2013-8-22,78,74,72,75,71,69,98,92,85,29.92,29.73,11,1,11,0.14
2013-8-23,81,73,67,71,63,57,95,73,49,29.95,29.72,6,0,6,0.00
2013-8-24,80,69,60,61,57,50,90,68,38,30.20,29.95,8,0,8,0.00
2013-8-25,85,71,60,62,58,52,97,68,34,30.24,30.08,12,1,12,0.00
2013-8-26,85,74,68,70,63,56,96,68,53,30.09,29.77,11,1,11,0.05
2013-8-27,85,76,71,74,70,68,96,82,64,29.77,29.67,7,1,7,0.02
2013-8-28,84,75,68,73,70,67,97,85,62,29.75,29.70,8,0,8,0.16
2013-8-29,80,72,69,70,68,65,96,86,67,29.89,29.74,9,0,9,0.00
2013-8-30,85,75,67,72,68,64,93,81,60,29.89,29.71,12,1,12,0.00
2013-8-31,86,77,72,75,72,69,92,85,67,29.73,29.65,12,2,12,0.00
2013-9-1,84,77,73,77,73,71,96,89,73,29.72,29.66,9,1,9,0.04
2013-9-2,80,76,73,77,74,71,98,94,87,29.67,29.57,8,0,8,0.04
2013-9-3,82,74,69,74,68,59,99,83,57,29.74,29.56,7,0,7,0.04
2013-9-4,83,72,64,62,59,55,87,66,41,29.84,29.73,7,0,7,0.00
2013-9-5,82,70,62,64,56,44,85,62,38,30.00,29.77,6,1,6,0.00
2013-9-6,72,62,54,51,47,42,80,60,39,30.11,29.98,8,0,8,0.00
2013-9-7,81,67,57,60,53,44,83,62,31,29.98,29.75,11,1,12,0.00
2013-9-8,81,71,62,68,58,46,82,66,43,29.93,29.67,7,1,7,0.15
2013-9-9,73,63,52,61,52,46,90,69,42,30.10,29.93,9,1,9,0.00
2013-9-10,81,74,67,73,68,61,90,84,75,30.02,29.91,11,2,11,0.00
2013-9-11,93,81,74,79,74,72,94,79,61,29.97,29.84,13,2,13,0.00
2013-9-12,85,75,69,75,71,68,98,87,70,29.85,29.54,18,2,18,0.49
2013-9-13,76,68,60,68,63,53,99,85,64,29.69,29.49,6,0,6,0.06
2013-9-14,67,60,54,55,51,49,85,73,58,29.97,29.69,5,0,5,0.00
2013-9-15,72,60,50,58,51,45,93,73,39,30.07,29.94,8,0,8,0.00
2013-9-16,71,63,58,60,56,49,94,78,58,30.08,29.89,6,0,6,0.01
2013-9-17,65,55,48,50,43,38,83,64,45,30.28,30.09,9,1,12,0.00
2013-9-18,72,59,48,54,48,44,93,71,40,30.20,30.04,6,0,8,0.00
2013-9-19,77,64,52,59,53,46,91,70,35,30.05,29.92,11,1,11,0.00
2013-9-20,80,66,56,62,58,54,96,77,50,29.94,29.86,8,1,9,0.00
2013-9-21,74,67,60,69,64,58,97,90,81,29.87,29.54,16,2,17,0.22
2013-9-22,70,63,55,68,56,46,98,77,52,29.76,29.50,14,1,14,1.05
2013-9-23,66,56,50,49,44,-100,80,67,50,29.90,29.76,9,-10,9,0.00
2013-9-24,68,58,46,52,47,42,89,69,46,29.91,29.72,5,0,5,0.00
2013-9-25,71,60,50,55,50,46,91,71,47,29.81,29.73,6,0,6,0.00
2013-9-26,70,60,54,60,56,52,98,85,63,29.95,29.79,3,0,7,0.00
2013-9-27,67,59,53,58,54,52,97,85,65,30.12,29.95,7,0,7,0.00
2013-9-28,74,62,53,60,55,52,97,78,51,30.17,30.09,8,0,8,0.00
2013-9-29,72,60,53,60,54,49,98,83,51,30.09,29.94,6,0,6,0.00
2013-9-30,73,60,51,59,54,50,98,82,51,29.94,29.82,6,0,6,0.00
2013-10-1,79,66,55,62,57,53,93,76,47,29.85,29.75,5,0,5,0.00
2013-10-2,81,70,60,65,61,57,91,74,53,29.86,29.75,7,0,7,0.00
2013-10-3,76,67,57,62,58,53,96,73,50,29.98,29.86,8,0,8,0.00
2013-10-4,84,71,62,70,64,58,96,79,58,29.93,29.82,8,0,8,0.00
2013-10-5,72,67,64,66,64,62,96,90,78,29.95,29.87,7,0,7,0.00
2013-10-6,68,66,64,67,65,63,98,97,94,29.96,29.90,6,0,6,0.00
2013-10-7,74,68,59,70,66,55,97,93,82,29.90,29.65,22,2,22,0.14
2013-10-8,66,59,53,56,48,44,88,69,49,30.17,29.83,4,0,7,0.00
2013-10-9,62,56,50,52,50,46,93,80,67,30.25,30.14,9,0,9,0.00
2013-10-10,62,58,52,57,54,49,91,85,82,30.14,29.93,12,1,12,0.00
2013-10-11,66,63,59,61,58,51,90,84,64,29.94,29.86,10,1,10,0.00
2013-10-12,71,63,57,58,51,41,82,66,34,30.14,29.92,13,1,13,0.00
2013-10-13,65,58,53,55,52,49,89,81,68,30.24,30.13,10,1,10,0.00
2013-10-14,64,55,47,55,50,45,95,83,67,30.22,30.10,6,0,6,0.00
2013-10-15,70,57,49,61,52,46,98,85,51,30.12,29.97,3,0,5,0.00
2013-10-16,66,59,51,60,56,50,96,90,79,29.97,29.78,6,0,6,0.00
2013-10-17,71,64,61,64,61,59,98,91,75,29.78,29.56,12,1,12,0.00
2013-10-18,67,62,55,63,51,45,96,69,49,29.83,29.53,9,1,9,0.01
2013-10-19,63,56,48,56,48,44,88,77,55,29.85,29.60,9,0,9,0.00
2013-10-20,61,55,49,56,44,37,91,66,43,29.91,29.59,7,0,7,0.00
2013-10-21,65,56,45,50,44,36,93,65,37,30.00,29.84,18,1,18,0.00
2013-10-22,68,58,52,52,49,42,85,72,53,29.84,29.60,12,1,12,0.00
2013-10-23,52,49,45,45,40,37,88,72,59,29.67,29.47,7,0,7,0.00
2013-10-24,54,47,41,38,34,28,82,62,42,29.85,29.60,8,1,8,0.00
2013-10-25,52,46,41,37,34,31,75,63,46,30.07,29.85,8,1,8,0.00
2013-10-26,54,48,40,37,35,30,83,61,41,30.07,29.76,20,2,20,0.00
2013-10-27,57,51,46,39,35,33,66,56,42,29.97,29.70,6,1,6,0.00
2013-10-28,60,50,39,39,36,34,86,62,42,30.17,29.97,9,0,9,0.00
2013-10-29,55,47,42,39,36,34,81,67,49,30.27,30.17,6,0,6,0.00
2013-10-30,59,51,42,53,46,36,96,83,70,30.20,30.03,11,0,11,0.00
2013-10-31,65,59,51,60,56,48,96,91,82,30.08,29.67,19,2,19,0.01
2013-11-1,68,64,59,63,59,56,97,87,68,29.67,29.41,23,3,23,0.08
2013-11-2,66,57,51,58,50,42,97,79,50,29.63,29.47,8,0,8,0.00
2013-11-3,54,46,37,44,36,23,84,69,58,30.29,29.62,9,1,9,0.00
2013-11-4,45,38,33,28,23,19,73,55,39,30.51,30.29,9,0,9,0.00
2013-11-5,54,46,36,43,37,26,84,72,60,30.50,30.34,6,0,6,0.00
2013-11-6,60,53,43,56,47,41,96,83,60,30.34,29.92,14,1,14,0.00
2013-11-7,63,55,42,60,51,33,97,88,64,29.92,29.60,13,2,13,0.13
2013-11-8,49,44,40,35,31,26,77,61,45,30.06,29.76,11,2,11,0.00
2013-11-9,48,44,37,37,30,27,77,60,44,30.13,29.86,15,1,15,0.00
2013-11-10,60,50,44,40,36,31,72,60,38,29.89,29.65,14,2,14,0.00
2013-11-11,52,48,42,35,31,28,59,52,45,30.05,29.82,14,2,14,0.00
2013-11-12,51,38,31,38,28,19,96,68,53,30.12,29.77,12,2,12,0.09
2013-11-13,38,33,28,22,18,14,69,55,38,30.20,30.12,9,2,9,0.00
2013-11-14,51,42,33,27,22,17,64,46,28,30.12,30.00,10,2,10,0.00
2013-11-15,56,48,40,42,33,24,84,57,37,30.10,30.01,11,2,11,0.00
2013-11-16,58,50,44,51,43,33,97,79,54,30.17,30.07,7,0,7,0.06
2013-11-17,61,54,44,60,53,43,99,97,91,30.13,29.65,9,0,10,0.02
2013-11-18,63,58,50,60,44,29,99,64,37,29.65,29.45,21,3,21,0.27
2013-11-19,50,43,34,32,28,24,67,55,46,30.19,29.62,20,4,20,0.00
2013-11-20,42,35,30,25,20,15,76,56,33,30.46,30.19,8,1,8,0.00
2013-11-21,51,41,29,43,34,23,90,75,57,30.46,30.24,8,0,8,0.00
2013-11-22,55,52,48,52,48,42,97,87,76,30.24,29.74,9,1,9,0.05
2013-11-23,54,42,31,50,28,7,87,59,37,29.88,29.74,21,4,21,0.00
2013-11-24,31,26,23,11,7,0,53,44,29,30.21,29.83,26,8,26,0.00
2013-11-25,34,28,22,18,14,8,65,54,43,30.32,30.19,15,3,15,0.00
2013-11-26,52,38,33,51,28,18,98,70,46,30.19,29.64,8,1,11,0.30
2013-11-27,62,48,34,61,46,24,99,93,66,29.64,29.18,17,5,30,1.42
2013-11-28,34,31,28,24,16,12,66,55,42,30.32,29.57,21,4,21,0.00
2013-11-29,37,32,28,23,20,16,73,61,53,30.58,30.32,10,1,10,0.00
2013-11-30,36,31,23,29,21,13,83,68,45,30.61,30.22,8,0,8,0.00
2013-12-1,47,41,35,39,35,29,90,78,66,30.22,29.86,5,0,5,0.00
2013-12-2,46,40,35,42,38,34,95,90,83,29.86,29.74,5,0,5,0.00
2013-12-3,50,41,34,39,36,33,98,85,63,29.85,29.72,4,0,4,0.00
2013-12-4,49,42,35,41,37,33,95,85,71,29.99,29.85,4,0,4,0.00
2013-12-5,57,52,43,55,50,41,99,96,90,29.98,29.79,11,1,11,0.02
2013-12-6,56,47,36,56,46,35,99,98,95,30.00,29.73,9,1,9,0.36
2013-12-7,40,36,31,35,30,21,97,80,61,30.35,29.93,14,2,14,0.11
2013-12-8,32,30,28,30,23,19,95,74,62,30.44,30.22,8,1,8,0.00
2013-12-9,40,36,31,39,35,30,99,97,94,30.23,29.80,10,1,10,0.19
2013-12-10,36,33,29,35,31,20,97,90,67,29.97,29.69,14,2,14,0.03
2013-12-11,32,30,26,20,18,16,67,62,52,30.17,29.97,14,4,14,0.02
2013-12-12,29,25,23,19,10,6,69,54,45,30.19,30.00,15,4,15,0.00
2013-12-13,34,29,23,21,14,7,68,53,49,30.18,29.97,15,3,15,0.00
2013-12-14,34,27,24,33,23,19,97,86,64,30.35,29.64,11,2,11,0.05
2013-12-15,41,35,31,40,31,22,98,86,65,29.69,29.32,20,3,20,0.92
2013-12-16,33,28,23,24,15,10,72,57,46,30.08,29.68,15,3,15,0.00
2013-12-17,32,26,22,30,22,12,95,84,62,30.08,29.77,9,0,9,0.00
2013-12-18,36,29,23,26,23,20,92,77,63,30.01,29.76,13,2,13,0.01
2013-12-19,45,38,29,32,27,22,81,65,51,30.03,29.88,14,2,14,0.08
2013-12-20,51,46,39,44,36,31,89,69,53,29.96,29.82,15,2,16,0.00
2013-12-21,59,53,47,52,49,44,93,86,73,29.86,29.76,13,3,13,0.00
2013-12-22,66,59,52,60,56,50,98,90,78,29.82,29.67,20,4,20,0.00
2013-12-23,60,53,40,58,52,37,99,96,87,29.99,29.72,13,1,13,0.39
2013-12-24,40,35,27,37,27,10,89,72,49,30.18,29.93,19,3,19,0.01
2013-12-25,27,22,19,17,2,-100,67,53,52,30.37,30.17,16,-81,16,0.00
2013-12-26,36,31,26,28,24,17,86,76,65,30.28,30.00,10,1,10,0.00
2013-12-27,40,35,30,26,23,19,77,63,44,30.21,30.11,12,2,12,0.00
2013-12-28,54,44,34,32,29,26,77,56,40,30.13,29.92,17,3,17,0.00
2013-12-29,47,43,40,44,37,30,97,80,51,29.93,29.22,15,2,15,0.89
2013-12-30,44,36,24,40,28,13,96,76,55,30.04,29.53,16,3,16,0.01
2013-12-31,32,26,21,24,16,11,75,64,52,30.12,29.91,14,2,16,0.00
2014-1-1,32,28,23,23,16,9,71,61,50,30.26,30.11,12,2,12,0.00
2014-1-2,32,26,17,26,23,15,93,87,70,30.10,29.51,17,3,17,0.00